[[{"header":{"parameterUnit":"m.s-1","parameterCategory":1,"la1":30.2991,"la2":30.254,"lo1":-89.0895,"lo2":-89.0444,"dy":0.0017,"dx":0.0017,"nx":28,"ny":28,"refTime":"2023-10-26T09:00:00:Z","depth":0,"parameterNumber":2,"parameterNumberName":"U-component_of_WINDS"},"data":[0,0,0,0,0,0,0,0,0,0,0,0,0,0,0,0,0,0,0,0,0,0,0,0,0,0,0,0,0,0,0,0,0,0,0,0,0,0,0,0,0,0,0,0,0,0,0,0,0,0,0,0,0,0,0,0,0,0,-2.7589,-2.759,0,-2.7645,-2.7645,-2.7646,-2.7636,-2.7635,-2.7634,-2.7633,-2.7688,-2.7691,-2.7693,0,0,0,0,0,0,0,0,0,0,0,0,0,-2.7475,-2.7477,-2.7589,-2.759,-2.759,-2.7645,-2.7646,-2.7646,-2.7636,-2.7635,-2.7634,-2.7633,-2.7688,-2.769,-2.7693,0,0,0,0,0,0,0,0,0,0,0,0,0,-2.7527,-2.7478,-2.7589,-2.7592,-2.7593,-2.7645,-2.7646,-2.7646,-2.7636,-2.7635,-2.7633,-2.7632,-2.7687,-2.769,-2.7694,-2.7745,0,0,-2.7705,-2.7706,0,0,0,0,0,0,0,0,-2.7524,-2.7531,-2.7591,-2.7592,-2.7593,-2.7632,-2.7626,-2.768,-2.7637,-2.762,-2.7633,-2.7631,-2.7671,-2.7676,-2.7689,-2.7748,-2.775,-2.7705,-2.7707,-2.7709,-2.771,0,0,0,0,0,0,0,-2.7521,-2.7529,-2.7611,-2.7592,-2.7593,-2.7591,-2.7597,-2.7636,-2.7653,-2.7621,-2.7621,-2.7627,-2.7671,-2.7686,-2.769,-2.7751,-2.7705,-2.7708,-2.771,-2.7712,-2.7859,-2.7861,0,0,0,0,0,0,-2.7516,-2.7526,-2.7609,-2.7613,-2.7554,-2.7594,-2.7601,-2.7621,-2.7652,-2.7656,-2.7629,-2.7627,-2.768,-2.7686,-2.7692,-2.7756,-2.7709,-2.7712,-2.7714,-2.7858,-2.786,-2.7862,0,0,0,0,0,0,-2.7514,-2.7524,-2.7607,-2.7569,-2.758,-2.7598,-2.7621,-2.7623,-2.7637,-2.7658,-2.7661,-2.764,-2.7679,-2.7687,-2.7733,-2.7758,-2.7714,-2.7717,-2.7855,-2.7858,-2.7861,-2.7884,0,0,0,0,0,0,-2.751,-2.7523,-2.7542,-2.757,-2.7582,-2.7646,-2.7622,-2.7625,-2.7644,-2.7642,-2.767,-2.7673,-2.7679,-2.7728,-2.7737,-2.7762,-2.772,-2.7853,-2.7857,-2.786,-2.7881,-2.7887,-2.7892,0,0,0,0,0,-2.7506,-2.7545,-2.7543,-2.7553,-2.7606,-2.7648,-2.7655,-2.7661,-2.7646,-2.7666,-2.768,-2.7672,-2.7755,-2.7733,-2.7743,-2.7769,-2.7852,-2.7856,-2.786,-2.7878,-2.7886,-2.7892,0,0,0,0,0,0,-2.7517,-2.7548,-2.7546,-2.7595,-2.7619,-2.7646,-2.767,-2.7668,-2.7696,-2.7693,-2.77,-2.7706,-2.7753,-2.7766,-2.7741,-2.7823,-2.7801,-2.7807,-2.7812,-2.7819,-2.7825,-2.782,-2.7723,0,0,0,0,0,-2.7526,-2.7557,-2.7583,-2.7623,-2.7636,-2.7652,-2.767,-2.7673,-2.7698,-2.7708,-2.7725,-2.7749,-2.7781,-2.7801,-2.7831,-2.7884,-2.7891,-2.7908,-2.7914,-2.7918,-2.7923,-2.7954,-2.7962,-2.7875,-2.7875,-2.7875,0,0,-2.7542,-2.7563,-2.7582,-2.7626,-2.7645,-2.7678,-2.766,-2.7694,-2.7719,-2.7713,-2.7757,-2.7772,-2.78,-2.785,-2.7873,-2.7862,-2.795,-2.7924,-2.7927,-2.7929,-2.7959,-2.7967,-2.7975,-2.7877,-2.7877,-2.7876,0,0,-2.7589,-2.7608,-2.7645,-2.7666,-2.7696,-2.7707,-2.7717,-2.7745,-2.7755,-2.78,-2.7797,-2.7828,-2.7882,-2.7902,-2.792,-2.7982,-2.7976,-2.7992,-2.802,-2.8051,-2.8057,-2.8064,-2.8086,-2.8094,-2.7997,-2.7997,-2.7997,0,-2.7606,-2.7655,-2.7664,-2.7701,-2.7721,-2.772,-2.7758,-2.7778,-2.7816,-2.783,-2.7818,-2.7889,-2.7907,-2.7964,-2.7979,-2.7994,-2.8005,-2.7987,-2.8056,-2.8062,-2.8068,-2.8089,-2.8098,-2.7998,-2.7998,-2.7998,-2.7998,0,-2.7675,-2.7709,-2.7736,-2.7775,-2.7799,-2.7835,-2.7852,-2.7875,-2.7878,-2.7891,-2.7939,-2.7963,-2.7999,-2.8013,-2.8015,-2.8071,-2.8064,-2.8054,-2.8031,-2.8078,-2.8098,-2.8106,-2.8001,-2.8,-2.8,-2.7999,0,0,-2.7725,-2.7773,-2.7782,-2.7801,-2.7837,-2.7864,-2.7903,-2.794,-2.796,-2.7988,-2.8021,-2.807,-2.8063,-2.8083,-2.8089,-2.8116,-2.8165,-2.8103,-2.8104,-2.8113,-2.8229,-2.8235,-2.8244,-2.8163,-2.8165,-2.8166,-2.8227,0,-2.7775,-2.7843,-2.7855,-2.7915,-2.7949,-2.7951,-2.7985,-2.8012,-2.8026,-2.8057,-2.8074,-2.8108,-2.8096,-2.8108,-2.8136,-2.8153,-2.8188,-2.8149,-2.8194,-2.8195,-2.8184,-2.8255,-2.826,-2.8316,-2.8235,-2.8236,-2.8237,0,-2.7841,-2.7873,-2.7937,-2.7972,-2.7986,-2.8017,-2.8053,-2.8083,-2.8115,-2.8124,-2.8149,-2.8153,-2.8195,-2.8174,-2.8232,-2.8206,-2.8226,-2.8238,-2.824,-2.8242,-2.8217,-2.8258,-2.8334,-2.8342,-2.8249,-2.8248,-2.8248,0,-2.7871,-2.7931,-2.7977,-2.7994,-2.8035,-2.8057,-2.8076,-2.8106,-2.8129,-2.8162,-2.8177,-2.8214,-2.8234,-2.8263,-2.8278,-2.826,-2.8336,-2.8315,-2.8345,-2.8344,-2.8358,-2.8356,-2.8436,-2.8373,-2.8373,-2.8373,-2.8373,0,-2.7925,-2.7964,-2.7992,-2.802,-2.8065,-2.808,-2.8124,-2.8142,-2.817,-2.8203,-2.8208,-2.8239,-2.8257,-2.8291,-2.8303,-2.8351,-2.836,-2.8369,-2.8371,-2.8367,-2.8366,-2.8378,-2.8374,-2.8375,-2.8375,-2.8374,-2.8374,0,-2.7964,-2.7985,-2.8036,-2.8073,-2.8084,-2.8115,-2.8147,-2.8176,-2.8193,-2.8235,-2.8245,-2.8272,-2.8312,-2.8331,-2.8381,-2.8389,-2.8443,-2.8443,-2.8433,-2.8433,-2.8462,-2.8458,-2.8551,-2.8564,-2.8493,-2.8494,-2.8495,0,-2.7996,-2.8027,-2.8069,-2.8092,-2.8111,-2.8148,-2.8173,-2.8191,-2.8216,-2.8257,-2.8281,-2.8322,-2.8356,-2.8422,-2.8445,-2.8484,-2.8485,-2.8515,-2.849,-2.8487,-2.8485,-2.8482,-2.8486,-2.8518,-2.8519,-2.8519,-2.852,0,-2.8051,-2.8061,-2.8096,-2.8136,-2.8165,-2.8197,-2.8229,-2.8248,-2.8271,-2.8299,-2.8342,-2.8369,-2.8422,-2.8463,-2.8505,-2.8525,-2.8527,-2.8528,-2.8537,-2.8532,-2.8525,-2.8529,-2.8443,-2.8525,-2.8524,-2.8524,-2.8524,-2.8524,-2.8087,-2.8115,-2.815,-2.819,-2.8217,-2.8247,-2.8277,-2.8299,-2.8335,-2.838,-2.839,-2.8435,-2.847,-2.8526,-2.8548,-2.8585,-2.8578,-2.8591,-2.8594,-2.8596,-2.8598,-2.8521,-2.8593,-2.8593,-2.8593,-2.8593,-2.8592,0,-2.8142,-2.8166,-2.8203,-2.8248,-2.828,-2.8282,-2.8318,-2.8345,-2.8385,-2.8418,-2.8453,-2.8504,-2.8545,-2.8574,-2.8617,-2.8641,-2.8643,-2.8651,-2.8649,-2.8654,-2.8602,-2.8589,-2.8649,-2.8649,-2.8649,-2.8649,-2.8649,-2.8649,-2.8173,-2.8222,-2.8237,-2.83,-2.8324,-2.8369,-2.839,-2.8419,-2.8446,-2.8503,-2.8538,-2.8557,-2.8589,-2.8635,-2.8674,-2.8682,-2.8697,-2.8706,-2.8713,-2.8663,-2.8657,-2.8651,-2.864,-2.8709,-2.8709,-2.8762,-2.8762,-2.8763]},{"header":{"parameterUnit":"m.s-1","parameterCategory":1,"la1":30.2991,"la2":30.254,"lo1":-89.0895,"lo2":-89.0444,"dy":0.0017,"dx":0.0017,"nx":28,"ny":28,"refTime":"2023-10-26T09:00:00:Z","depth":0,"parameterNumber":3,"parameterNumberName":"V-component_of_WINDS"},"data":[0,0,0,0,0,0,0,0,0,0,0,0,0,0,0,0,0,0,0,0,0,0,0,0,0,0,0,0,0,0,0,0,0,0,0,0,0,0,0,0,0,0,0,0,0,0,0,0,0,0,0,0,0,0,0,0,0,0,1.8235,1.8236,0,1.8334,1.8336,1.8337,1.8313,1.8311,1.8309,1.8307,1.8406,1.841,1.8414,0,0,0,0,0,0,0,0,0,0,0,0,0,1.8025,1.8029,1.8235,1.8236,1.8238,1.8334,1.8336,1.8337,1.8313,1.8311,1.8309,1.8306,1.8404,1.8409,1.8415,0,0,0,0,0,0,0,0,0,0,0,0,0,1.8119,1.803,1.8235,1.8237,1.8239,1.8334,1.8336,1.8337,1.8314,1.8311,1.8308,1.8305,1.8402,1.8409,1.8415,1.8513,0,0,1.8436,1.8438,0,0,0,0,0,0,0,0,1.8114,1.8127,1.8236,1.8237,1.8239,1.8308,1.8297,1.8396,1.8314,1.8285,1.8307,1.8304,1.8375,1.8384,1.8409,1.8518,1.8522,1.8436,1.844,1.8443,1.8445,0,0,0,0,0,0,0,1.8107,1.8122,1.8274,1.8237,1.8239,1.8234,1.8244,1.8316,1.8345,1.8287,1.8286,1.8298,1.8376,1.8403,1.8411,1.8524,1.8436,1.8442,1.8446,1.8448,1.8722,1.8725,0,0,0,0,0,0,1.81,1.8117,1.8271,1.8277,1.8168,1.824,1.8251,1.8289,1.8344,1.835,1.8301,1.8297,1.8393,1.8403,1.8414,1.8536,1.8443,1.8449,1.8453,1.8719,1.8723,1.8727,0,0,0,0,0,0,1.8095,1.8114,1.8267,1.8197,1.8216,1.8246,1.8289,1.8292,1.8319,1.8354,1.8359,1.8323,1.8391,1.8405,1.849,1.8539,1.8452,1.8458,1.8715,1.872,1.8725,1.8777,0,0,0,0,0,0,1.8089,1.8112,1.8149,1.8198,1.822,1.8342,1.8292,1.8296,1.8331,1.8327,1.8376,1.8382,1.839,1.848,1.8497,1.8546,1.8463,1.8711,1.8717,1.8723,1.8771,1.8783,1.8794,0,0,0,0,0,1.8082,1.8159,1.8151,1.817,1.8267,1.8344,1.8357,1.8366,1.8335,1.8373,1.8396,1.838,1.8531,1.8489,1.8507,1.856,1.8708,1.8715,1.8723,1.8766,1.8781,1.8793,0,0,0,0,0,0,1.8113,1.8165,1.8157,1.8252,1.8294,1.834,1.8388,1.838,1.8431,1.8425,1.8432,1.8444,1.8531,1.8553,1.8507,1.8659,1.8615,1.8626,1.8642,1.8656,1.8667,1.866,1.8469,0,0,0,0,0,1.8131,1.819,1.8232,1.8311,1.8333,1.8357,1.8391,1.8395,1.8438,1.8455,1.8484,1.8526,1.8583,1.862,1.8675,1.8774,1.8786,1.8819,1.883,1.8839,1.885,1.8907,1.8923,1.8751,1.8751,1.8751,0,0,1.8168,1.8204,1.824,1.8319,1.8351,1.8413,1.8372,1.8437,1.8483,1.8464,1.8548,1.8571,1.8618,1.8712,1.8755,1.8734,1.89,1.8849,1.8856,1.8861,1.8917,1.8933,1.8947,1.8756,1.8755,1.8754,0,0,1.8269,1.8301,1.8372,1.8407,1.8459,1.8475,1.8492,1.8541,1.8556,1.864,1.8629,1.8683,1.878,1.8816,1.8846,1.8965,1.8953,1.8982,1.9041,1.9097,1.9111,1.9123,1.9167,1.9183,1.8992,1.8992,1.8992,0,1.8308,1.8401,1.841,1.8478,1.8514,1.8502,1.8576,1.8609,1.8675,1.87,1.8675,1.88,1.8831,1.8935,1.8964,1.8989,1.901,1.8977,1.9108,1.912,1.9132,1.9174,1.9191,1.8995,1.8995,1.8994,1.8994,0,1.8449,1.8513,1.8565,1.8632,1.8673,1.8743,1.8764,1.8805,1.8806,1.8825,1.8912,1.895,1.9013,1.9038,1.9037,1.9143,1.9128,1.9106,1.9061,1.9151,1.9192,1.9208,1.9,1.8999,1.8998,1.8997,0,0,1.857,1.8644,1.8663,1.8695,1.8752,1.8802,1.8873,1.8937,1.8973,1.9019,1.908,1.9165,1.9146,1.9181,1.9185,1.9234,1.933,1.9206,1.9208,1.923,1.9451,1.9469,1.9488,1.9322,1.9325,1.9327,1.9448,0,1.8677,1.8803,1.8815,1.8928,1.899,1.8981,1.9043,1.9086,1.9106,1.9161,1.9183,1.9244,1.9213,1.9235,1.9283,1.9308,1.9374,1.9299,1.9379,1.9382,1.937,1.9508,1.9527,1.9638,1.9463,1.9466,1.9468,0,1.8819,1.8873,1.8993,1.9046,1.9072,1.9127,1.9189,1.9241,1.929,1.9301,1.9343,1.9342,1.9415,1.9368,1.9471,1.942,1.9454,1.9471,1.9476,1.9485,1.9431,1.9523,1.9674,1.9692,1.9492,1.949,1.9489,0,1.8899,1.9001,1.9087,1.9114,1.9177,1.9217,1.9245,1.9291,1.933,1.9383,1.9409,1.9469,1.9503,1.955,1.9566,1.9529,1.9669,1.9622,1.9682,1.9682,1.9713,1.9711,1.9873,1.9731,1.9731,1.9731,1.973,0,1.9018,1.9093,1.9124,1.9177,1.9261,1.9275,1.9357,1.9383,1.9425,1.9483,1.9478,1.9533,1.955,1.9608,1.962,1.9706,1.972,1.9732,1.9735,1.9734,1.9733,1.9757,1.975,1.9735,1.9734,1.9733,1.9733,0,1.9122,1.9146,1.924,1.9293,1.9308,1.9368,1.9413,1.9465,1.9485,1.956,1.9578,1.961,1.9679,1.9699,1.978,1.9789,1.989,1.9884,1.9874,1.9875,1.9934,1.9929,2.0119,2.0146,1.9985,1.9986,1.9987,0,1.9198,1.9255,1.9316,1.9356,1.9386,1.9449,1.949,1.9506,1.9549,1.9611,1.9656,1.9724,1.9779,1.9889,1.992,1.9983,1.998,2.0043,1.999,1.9988,1.9984,1.9982,1.9989,2.0053,2.0055,2.0056,2.0057,0,1.9331,1.9341,1.94,1.9465,1.9514,1.9566,1.9615,1.9647,1.9671,1.9719,1.979,1.9834,1.9919,1.9988,2.0052,2.0081,2.0074,2.0074,2.0091,2.0092,2.0084,2.0092,1.9904,2.0069,2.0068,2.0067,2.0067,2.0066,1.9424,1.9477,1.9529,1.9596,1.9635,1.9683,1.9735,1.9764,1.9824,1.9896,1.9901,1.9979,2.0029,2.0116,2.0148,2.0209,2.0191,2.0216,2.0223,2.0229,2.0235,2.0074,2.0221,2.022,2.022,2.022,2.022,0,1.956,1.9593,1.9655,1.9726,1.978,1.977,1.9825,1.987,1.9939,1.9987,2.0043,2.0126,2.0194,2.0231,2.0298,2.034,2.0339,2.0358,2.0355,2.0363,2.0246,2.0226,2.0358,2.0358,2.0358,2.0358,2.0358,2.0358,1.9636,1.9726,1.9742,1.9852,1.9884,1.9962,1.9995,2.0039,2.0078,2.0172,2.0229,2.0253,2.0297,2.0368,2.043,2.0439,2.0465,2.0486,2.0494,2.0384,2.037,2.0357,2.0338,2.0491,2.0491,2.0605,2.0606,2.0607]}]]